Waarnemingen

Advertentie
Mijn weer
Jaen, Spanje (8417): temperatuur & dauwpunt: 12.02.2019 20:00:00 - 18.02.2019 20:00:00 (CET)Jaen, Spanje (8417): windsnelheid: 12.02.2019 20:00:00 - 18.02.2019 20:00:00 (CET)Jaen, Spanje (8417): windrichting: 12.02.2019 20:00:00 - 18.02.2019 20:00:00 (CET)Jaen, Spanje (8417): luchtdruk: 12.02.2019 20:00:00 - 18.02.2019 20:00:00 (CET)Jaen, Spanje (8417): zicht: 12.02.2019 20:00:00 - 18.02.2019 20:00:00 (CET)Jaen, Spanje (8417): neerslag: 12.02.2019 20:00:00 - 18.02.2019 20:00:00 (CET)
Datum & Tijd tt [°C] td [°C] ff [km/u] ff [kn] dd ppp [hPa] vv [km] rr [mm]
18.02.2019 20:00:00 - - - - - - - -
18.02.2019 19:00:00 14,0 1,9 9 5 WZW 1016,0 20 -
18.02.2019 18:00:00 16,0 0,9 8 4 WNW 1015,0 20 0,0
18.02.2019 17:00:00 16,2 0,3 4 2 W 1014,9 20 0,0
18.02.2019 16:00:00 16,7 0,3 5 3 N 1014,8 20 -
18.02.2019 15:00:00 16,2 2,2 8 4 N 1015,3 20 0,0
18.02.2019 14:00:00 15,1 2,3 4 2 NO 1016,2 20 0,0
18.02.2019 13:00:00 15,2 1,7 4 2 O 1016,8 20 -
18.02.2019 12:00:00 15,3 -0,5 11 6 ZO 1017,2 20 0,0
18.02.2019 11:00:00 14,1 -0,8 16 9 ZO 1017,7 20 0,0
18.02.2019 10:00:00 11,9 -1,6 15 8 ZO 1018,1 20 -
18.02.2019 09:00:00 11,0 -2,4 15 8 ZZO 1018,0 20 0,0
18.02.2019 08:00:00 10,7 -2,7 18 10 ZZO 1017,8 20 0,0
18.02.2019 07:00:00 10,9 -1,9 16 9 ZZO 1017,8 20 -
18.02.2019 06:00:00 10,7 -0,8 16 9 ZZO 1017,8 20 0,0
18.02.2019 05:00:00 10,8 -0,4 8 4 ZO 1018,0 20 0,0
18.02.2019 04:00:00 11,1 -0,1 9 5 ZZO 1018,6 20 -
18.02.2019 03:00:00 11,6 -0,6 13 7 ZZO 1018,9 20 0,0
18.02.2019 02:00:00 11,2 0,0 5 3 ZZO 1019,6 20 0,0
18.02.2019 01:00:00 11,7 1,3 8 4 Z 1020,0 20 -
18.02.2019 00:00:00 12,3 0,7 8 4 ZZW 1020,3 20 0,0
17.02.2019 23:00:00 12,7 0,1 15 8 Z 1020,1 20 0,0
17.02.2019 22:00:00 13,3 -0,4 16 9 ZZO 1020,1 20 -
17.02.2019 21:00:00 12,3 -2,0 5 3 Z 1020,4 20 0,0
17.02.2019 20:00:00 11,8 -1,4 13 7 Z 1020,3 20 0,0
17.02.2019 19:00:00 12,4 -1,5 9 5 ZW 1019,8 20 -
17.02.2019 18:00:00 14,9 -0,1 8 4 WZW 1019,2 20 0,0
17.02.2019 17:00:00 16,5 -2,6 4 2 WNW 1019,1 20 0,0
17.02.2019 16:00:00 17,6 -3,2 8 4 N 1019,4 20 -
17.02.2019 15:00:00 17,4 -1,8 4 2 NO 1020,2 20 0,0
17.02.2019 14:00:00 16,4 -1,7 5 3 NNO 1021,3 20 0,0
17.02.2019 13:00:00 15,6 1,3 4 2 NO 1022,4 20 -
17.02.2019 12:00:00 13,3 -0,7 2 1 NNO 1023,5 20 0,0
17.02.2019 11:00:00 12,4 -0,8 4 2 ONO 1023,7 20 0,0
17.02.2019 10:00:00 10,0 -3,0 4 2 N 1024,2 20 -
17.02.2019 09:00:00 11,4 -6,5 8 4 ZZO 1023,4 20 0,0
17.02.2019 08:00:00 10,5 -6,8 18 10 ZZO 1022,9 20 0,0
17.02.2019 07:00:00 10,0 -6,4 16 9 ZZO 1023,3 20 -
17.02.2019 06:00:00 10,1 -5,9 24 13 ZZO 1023,0 20 0,0
17.02.2019 05:00:00 10,3 -4,9 21 11 ZZO 1023,1 20 0,0
17.02.2019 04:00:00 10,3 -4,5 18 10 ZZO 1023,4 20 -
17.02.2019 03:00:00 10,6 -3,2 24 13 ZZO 1023,5 20 0,0
17.02.2019 02:00:00 10,9 -1,9 15 8 ZZO 1024,1 20 0,0
17.02.2019 01:00:00 11,5 -1,0 13 7 ZO 1024,6 20 -
17.02.2019 00:00:00 12,7 -2,4 16 9 ZO 1024,2 20 0,0
16.02.2019 23:00:00 13,6 -2,8 21 11 OZO 1023,6 20 0,0
16.02.2019 22:00:00 13,9 -3,0 16 9 ZO 1023,1 20 -
16.02.2019 21:00:00 14,7 -2,3 29 16 ZO 1022,3 20 0,0
16.02.2019 20:00:00 15,5 -3,0 24 13 ZO 1021,6 20 0,0
16.02.2019 19:00:00 16,2 -3,9 13 7 ZO 1021,1 20 -
16.02.2019 18:00:00 17,4 -2,3 18 10 ZO 1020,1 20 0,0
16.02.2019 17:00:00 18,6 -1,8 21 11 OZO 1019,6 20 0,0
16.02.2019 16:00:00 19,5 -0,5 8 4 OZO 1019,7 6 -
16.02.2019 15:00:00 19,3 -1,8 15 8 ZO 1020,5 20 0,0
16.02.2019 14:00:00 18,2 -1,6 13 7 OZO 1021,7 20 0,0
16.02.2019 13:00:00 17,5 -2,8 11 6 ZO 1022,6 20 -
16.02.2019 12:00:00 16,4 -3,2 18 10 ZO 1023,3 20 0,0
16.02.2019 11:00:00 15,4 -2,6 21 11 ZO 1023,5 20 0,0
16.02.2019 10:00:00 14,0 -3,3 18 10 OZO 1023,5 20 -
16.02.2019 09:00:00 13,0 -3,3 8 4 ZZO 1023,5 20 0,0
16.02.2019 08:00:00 12,5 -3,0 13 7 Z 1023,1 20 0,0
16.02.2019 07:00:00 12,9 -3,0 26 14 ZO 1022,6 20 -
16.02.2019 06:00:00 13,5 -2,9 28 15 ZO 1022,2 20 0,0
16.02.2019 05:00:00 13,7 -2,3 29 16 ZO 1022,1 20 0,0
16.02.2019 04:00:00 13,3 -1,9 24 13 ZO 1022,4 20 -
16.02.2019 03:00:00 13,0 -0,7 11 6 ZZO 1023,0 20 0,0
16.02.2019 02:00:00 13,0 0,0 22 12 Z 1022,7 20 0,0
16.02.2019 01:00:00 13,5 0,5 24 13 ZZO 1022,6 20 -
16.02.2019 00:00:00 13,8 2,1 18 10 ZZO 1022,6 20 0,0
15.02.2019 23:00:00 13,9 2,8 18 10 ZZO 1022,9 20 0,0
15.02.2019 22:00:00 15,0 2,8 22 12 Z 1022,9 20 -
15.02.2019 21:00:00 15,1 3,9 13 7 ZO 1022,6 20 0,0
15.02.2019 20:00:00 13,1 4,3 8 4 Z 1023,2 20 0,0
15.02.2019 19:00:00 13,5 4,6 4 2 ZW 1023,1 20 -
15.02.2019 18:00:00 16,5 5,4 5 3 ZW 1021,9 20 0,0
15.02.2019 17:00:00 17,8 5,4 5 3 ZW 1021,8 20 0,0
15.02.2019 16:00:00 18,2 5,1 4 2 NNO 1022,1 20 -
15.02.2019 15:00:00 17,2 4,5 5 3 N 1023,2 20 0,0
15.02.2019 14:00:00 15,9 5,2 4 2 N 1024,4 20 0,0
15.02.2019 13:00:00 14,1 4,9 4 2 ONO 1025,8 20 -
15.02.2019 12:00:00 12,8 5,7 4 2 NO 1026,7 20 0,0
15.02.2019 11:00:00 11,2 4,2 4 2 NO 1027,3 20 0,0
15.02.2019 10:00:00 8,7 3,7 2 1 NNO 1028,0 20 -
15.02.2019 09:00:00 6,2 2,5 2 1 NNW 1028,5 19 0,0
15.02.2019 08:00:00 5,3 2,5 4 2 WNW 1028,4 20 0,0
15.02.2019 07:00:00 5,0 2,9 4 2 ZO 1028,6 19 -
15.02.2019 06:00:00 5,7 3,0 4 2 OZO 1028,6 20 0,0
15.02.2019 05:00:00 6,6 3,2 2 1 ZZW 1028,7 20 0,0
15.02.2019 04:00:00 6,3 3,5 8 4 WZW 1029,0 20 -
15.02.2019 03:00:00 6,7 2,9 4 2 WZW 1029,2 20 0,0
15.02.2019 02:00:00 7,3 2,2 5 3 WZW 1029,5 20 0,0
15.02.2019 01:00:00 8,5 1,9 8 4 WZW 1029,1 20 -
15.02.2019 00:00:00 9,9 2,0 5 3 WZW 1028,6 20 0,0
14.02.2019 23:00:00 11,6 2,1 13 7 Z 1028,1 20 0,0
14.02.2019 22:00:00 11,8 1,4 8 4 ZZO 1027,8 20 -
14.02.2019 21:00:00 11,3 1,2 9 5 Z 1028,0 20 0,0
14.02.2019 20:00:00 10,3 1,6 5 3 ZZW 1028,3 20 0,0
14.02.2019 19:00:00 11,5 2,5 4 2 ZW 1027,8 20 -
14.02.2019 18:00:00 14,4 2,6 5 3 ZW 1026,9 20 0,0
14.02.2019 17:00:00 15,9 1,2 4 2 NW 1026,7 20 0,0
14.02.2019 16:00:00 17,2 0,8 5 3 NNO 1026,5 20 -
14.02.2019 15:00:00 17,2 1,2 5 3 NO 1027,0 20 0,0
14.02.2019 14:00:00 16,6 1,8 5 3 ONO 1027,6 20 0,0
14.02.2019 13:00:00 14,8 1,0 4 2 ONO 1029,1 20 -
14.02.2019 12:00:00 12,6 1,3 4 2 NNO 1030,2 20 0,0
14.02.2019 11:00:00 11,0 1,2 5 3 N 1030,5 20 0,0
14.02.2019 10:00:00 10,2 -0,3 4 2 N 1030,2 20 -
14.02.2019 09:00:00 12,2 -9,5 21 11 ZZO 1029,1 20 0,0
14.02.2019 08:00:00 11,2 -9,8 22 12 ZZO 1028,8 20 0,0
14.02.2019 07:00:00 11,3 -8,6 24 13 Z 1028,9 20 -
14.02.2019 06:00:00 11,0 -6,8 22 12 Z 1028,9 20 0,0
14.02.2019 05:00:00 11,1 -5,4 21 11 Z 1028,7 20 0,0
14.02.2019 04:00:00 11,0 -2,8 22 12 Z 1028,8 20 -
14.02.2019 03:00:00 11,1 -1,7 16 9 ZZO 1029,0 20 0,0
14.02.2019 02:00:00 11,1 -1,0 15 8 ZZO 1029,0 20 0,0
14.02.2019 01:00:00 11,1 -0,4 9 5 ZZO 1029,3 20 -
14.02.2019 00:00:00 11,3 -2,2 13 7 ZZO 1029,3 20 0,0
13.02.2019 23:00:00 10,7 -2,7 5 3 ZZW 1029,5 20 0,0
13.02.2019 22:00:00 10,0 -0,5 2 1 ZW 1029,2 20 -
13.02.2019 21:00:00 10,4 -0,4 4 2 ZZW 1028,7 20 0,0
13.02.2019 20:00:00 12,1 -0,4 5 3 ZZW 1028,0 20 0,0
13.02.2019 19:00:00 11,6 1,2 9 5 WZW 1027,7 20 -
13.02.2019 18:00:00 14,6 1,1 8 4 WZW 1026,8 20 0,0
13.02.2019 17:00:00 16,5 1,4 4 2 WNW 1026,5 20 0,0
13.02.2019 16:00:00 17,3 1,7 4 2 N 1026,4 20 -
13.02.2019 15:00:00 17,1 2,3 5 3 NNO 1026,6 20 0,0
13.02.2019 14:00:00 16,0 2,7 2 1 NNO 1027,5 20 0,0
13.02.2019 13:00:00 14,5 3,3 4 2 NO 1028,8 20 -
13.02.2019 12:00:00 12,3 4,3 4 2 NNO 1029,7 20 0,0
13.02.2019 11:00:00 10,8 4,7 4 2 N 1030,0 18 0,0
13.02.2019 10:00:00 8,8 3,0 8 4 NNW 1030,2 20 -
13.02.2019 09:00:00 7,7 1,5 4 2 OZO 1030,4 20 0,0
13.02.2019 08:00:00 6,5 2,9 4 2 ZO 1030,3 20 0,0
13.02.2019 07:00:00 7,8 3,1 2 1 NNO 1030,0 20 -
13.02.2019 06:00:00 9,3 3,1 15 8 Z 1029,4 20 0,0
13.02.2019 05:00:00 8,7 3,1 15 8 Z 1029,9 19 0,0
13.02.2019 04:00:00 9,2 3,2 16 9 ZO 1030,0 20 -
13.02.2019 03:00:00 9,7 3,2 15 8 ZZO 1030,4 20 0,0
13.02.2019 02:00:00 9,8 3,5 15 8 ZZO 1030,4 20 0,0
13.02.2019 01:00:00 10,3 3,6 9 5 ZZO 1030,6 20 -
13.02.2019 00:00:00 9,7 3,9 11 6 Z 1031,0 20 0,0
12.02.2019 23:00:00 10,4 4,5 8 4 ZZW 1031,0 20 0,0
12.02.2019 22:00:00 10,3 5,3 4 2 ZZW 1030,8 20 -
12.02.2019 21:00:00 11,9 5,1 5 3 ZZW 1029,9 20 0,0
12.02.2019 20:00:00 11,3 5,6 9 5 WZW 1029,8 20 0,0

tt = temperatuur
td = dauwpunt
ff = windsnelheid
dd = windrichting
ppp = luchtdruk
vv = zicht
rr = neerslag

Weerstations in de omgeving